Location: Jack Pine
(43.3260°N, 110.4341°W)
Time: 11:51:22
(UTC+00:00)

X-37B - Pass Details

Date: 26 January 2022
Orbit: 329 x 342 km, 45.0° (Epoch: 18 May)

Event Time Altitude Azimuth Distance (km) Brightness Sun altitude
Rises 02:04:55 0° 215° (SW) 2,104 5.0 -18.2°
Reaches altitude 10° 02:07:15 10° 196° (SSW) 1,268 3.5 -18.6°
Enters shadow 02:08:22 16° 175° (S) 981 2.6 -18.8°
